This demonstration page uses our WeatherBlox Daily Observations layout. Learn more.

41.55636, -103.73856

Hourly Observations for August 27, 2019

Temp ( °F °C ) Dew Point ( °F °C ) Humidity (%) Winds ( mph kmh ) Pressure ( in mb ) Visibility ( mi km ) Precip ( " mm )
12:58 am 00:58 Mostly Clear 53 11.8 46 7.5 75 75 Calm 30.06 1018 10 16.09344 0 0
1:58 am 01:58 Mostly Clear 50 9.9 45 7.4 85 85 NW 5 7 30.06 1018 10 16.09344 0 0
2:58 am 02:58 Mostly Cloudy 51 10.4 46 7.8 84 84 NW 6 9 30.06 1018 10 16.09344 0 0
3:58 am 03:58 Cloudy 53 11.8 47 8.4 80 80 N 7 11 30.03 1017 10 16.09344 0 0
4:58 am 04:58 Mostly Cloudy 54 12.3 47 8.2 76 76 N 6 9 30.06 1018 10 16.09344 0 0
5:58 am 05:58 Mostly Cloudy 53 11.9 47 8.6 80 80 NNW 5 7 30.09 1019 10 16.09344 0 0
6:58 am 06:58 Cloudy 53 11.8 46 7.9 77 77 N 7 11 30.12 1020 10 16.09344 0 0
7:58 am 07:58 Cloudy 54 12.2 46 7.8 75 75 N 8 13 30.15 1021 10 16.09344 0 0
8:58 am 08:58 Mostly Cloudy 56 13.2 46 8 71 71 NNE 8 13 30.15 1021 10 16.09344 0 0
9:58 am 09:58 Mostly Cloudy 58 14.6 44 6.6 59 59 NNE 12 19 30.18 1022 10 16.09344 0 0
10:58 am 10:58 Mostly Cloudy 61 15.9 44 6.6 54 54 NNE 10 17 30.18 1022 10 16.09344 0 0
11:58 am 11:58 Mostly Sunny 64 17.7 44 6.6 48 48 NNE 9 15 30.15 1021 10 16.09344 0 0
12:58 pm 12:58 Sunny 65 18.1 43 6.2 46 46 ENE 9 15 30.12 1020 10 16.09344 0 0
1:58 pm 13:58 Sunny 66 19 44 6.7 45 45 Calm 30.12 1020 10 16.09344 0 0
2:58 pm 14:58 Sunny 68 19.9 46 7.5 45 45 Calm 30.09 1019 10 16.09344 0 0
3:58 pm 15:58 Sunny 69 20.5 44 6.7 41 41 Calm 30.09 1019 10 16.09344 0 0
4:58 pm 16:58 Sunny 70 20.9 45 7.2 41 41 N 6 9 30.06 1018 10 16.09344 0 0
5:58 pm 17:58 Sunny 69 20.7 43 6 38 38 Calm 30.06 1018 10 16.09344 0 0
6:58 pm 18:58 Sunny 66 19.1 46 7.5 47 47 ENE 6 9 30.09 1019 10 16.09344 0 0
7:58 pm 19:58 Clear 62 16.4 45 7.2 55 55 NE 3 6 30.09 1019 10 16.09344 0 0
8:58 pm 20:58 Clear 57 13.7 46 7.7 67 67 S 8 13 30.12 1020 10 16.09344 0 0
9:58 pm 21:58 Clear 54 12.3 49 9.5 83 83 SSW 8 13 30.12 1020 10 16.09344 0 0
10:58 pm 22:58 Clear 53 11.5 49 9.2 86 86 SSW 8 13 30.12 1020 10 16.09344 0 0
11:58 pm 23:58 Clear 52 11.2 48 8.9 86 86 SW 7 11 30.12 1020 10 16.09344 0 0

Powered by AerisWeather